Location: Vihti�l�
(61.3833°N, 23.0667°E)
Time: 04:14:35
(UTC+00:00)

EO 1 Delta rocket - Pass Details

Date: 29 November 2020
Orbit: 698 x 1791 km, 95.4° (Epoch: 22 January)

Event Time Altitude Azimuth Distance (km) Brightness Sun altitude
Rises 03:51:59 0° 168° (SSE) 3,225 7.5 -21.7°
Reaches altitude 10° 03:54:20 10° 170° (S) 2,235 6.6 -21.4°
Maximum altitude 03:59:06 82° 258° (WSW) 716 3.7 -20.8°
Drops below altitude 10° 04:03:48 10° 347° (NNW) 2,208 6.2 -20.3°
Enters shadow 04:04:04 - 347° (NNW) 2,321 6.3 -20.2°
